Location: Alma
(34.4195°N, 97.6123°W)
Time: 06:43:01
(UTC+00:00)

Hubble Space Telescope - Pass Details

Date: 31 May 2024
Orbit: 511 x 514 km, 28.5° (Epoch: 13 June)

Event Time Altitude Azimuth Distance (km) Brightness Sun altitude
Rises 04:05:15 0° 262° (W) 2,612 4.6 -24.2°
Reaches altitude 10° 04:07:45 10° 249° (WSW) 1,724 3.5 -24.5°
Enters shadow 04:08:22 13° 243° (WSW) 1,533 3.2 -24.5°
